Details From ENVA - Vaernes
To ENKB - Kvernberget
Flight Number -
Tags Routegen Generated
Created
Modified
Stats Distance 85 nm / 157 km
Max Altitude 500 ft / 152 m
Waypoints 9
Social Downloads 12
Likes 0
Share

Download

Looking for another format? Having issues loading an existing format? Contact us
Advertisement - Login to hide

Notes

Departing runway 27 ENVA. Arriving runway 7 ENKB.

Route

ENVA +63.46_+010.73 +63.46_+010.70 +63.45_+010.66 +63.45_+010.63 +63.33_+009.58 +63.16_+008.18 +63.16_+008.15 ENKB

ID Type Via Altitude (ft/m) Position (lat/lon) Dist (leg/tot) Name
O ENVA APT - 0 / 0 63.45766 / 10.88929 - / 0 nm
+63.46_+010.73 DME - 500 / 152 63.45789 / 10.72735 4 / 4 nm
+63.46_+010.70 DME - 500 / 152 63.45669 / 10.69507 0 / 5 nm
+63.45_+010.66 DME - 500 / 152 63.45424 / 10.66315 0 / 6 nm
+63.45_+010.63 DME - 500 / 152 63.45055 / 10.63184 0 / 6 nm
+63.33_+009.58 DME - 500 / 152 63.33138 / 9.57745 29 / 36 nm
+63.16_+008.18 DME - 500 / 152 63.16376 / 8.17733 39 / 75 nm
+63.16_+008.15 DME - 500 / 152 63.16036 / 8.14617 0 / 76 nm
O ENKB APT - 0 / 0 63.11458 / 7.84231 8 / 84 nm

Altitude Profile

Advertisement - Login to hide

ENVA

Details ICAO ENVA (TRD)
Name Trondheim Vaernes
Region Norway
Timezone Europe/Oslo (UTC+2.0)
Stats Elevation 56 ft / 17 m (AMSL)
Location 63.457500° 10.924200°
Runways 1
Magnetic Variation 4.134° E

METAR

ENVA 120220Z VRB02KT 9999 FEW160 M02/M05 Q1021 RMK WIND 670FT 10006KT

Decode

TAF

TAF ENVA 112300Z 1200/1224 VRB05KT 9999 FEW030 SCT050 BECMG 1209/1212 01010KT TEMPO 1220/1224 2000 -SN VV008

Decode

Departure Runways

ID Width Length Bearing (true/mag) Surface Threshold Overrun Markings Lighting
09 148 ft / 45 m 9,744 ft / 2,970 m 90.18° / 86.05° ASPHALT 830 ft / 253 m 0 ft / 0 m PREC-APP CENTERLINE EDGE THRESHOLD CALVERT REIL-OMNI
27 148 ft / 45 m 9,744 ft / 2,970 m 270.24° / 266.10° ASPHALT 745 ft / 227 m 0 ft / 0 m PREC-APP CENTERLINE EDGE THRESHOLD CALVERT REIL-OMNI

ENKB

Details ICAO ENKB (KSU)
Name Kristiansund Kvernberget
Region Norway
Timezone Europe/Oslo (UTC+2.0)
Stats Elevation 204 ft / 62 m (AMSL)
Location 63.112500° 7.829240°
Runways 1
Magnetic Variation 2.629° E

METAR

ENKB 120220Z AUTO 03004KT 9999 NCD 00/M03 Q1021 RMK WIND 745FT 06009KT

Decode

TAF

Not found

Destination Runways

ID Width Length Bearing (true/mag) Surface Threshold Overrun Markings Lighting
07 151 ft / 46 m 7,317 ft / 2,230 m 71.36° / 68.73° ASPHALT 0 ft / 0 m 0 ft / 0 m PREC-APP CENTERLINE EDGE THRESHOLD ALSF-II
25 151 ft / 46 m 7,317 ft / 2,230 m 251.40° / 248.77° ASPHALT 0 ft / 0 m 0 ft / 0 m PREC-APP CENTERLINE EDGE THRESHOLD ALSF-II

Approach Navaids

Runway Type Ident Frequency Range Bearing (true/mag) Slope Elevation
07 OM OM - - 71.41° / 68.78 ° - 204 ft / 62 m (AMSL)
07 LOC-ILS KB 110.10 MHz 18 nm / 33 km 71.38° / 68.75 ° - 204 ft / 62 m (AMSL)
07 MM MM - - 71.41° / 68.78 ° - 204 ft / 62 m (AMSL)
07 GS KB 110.10 MHz 10 nm / 19 km 71.38° / 68.75 ° 3.00° 204 ft / 62 m (AMSL)

Popular Alternatives